Weather History for KBBD - May, 2013

Change the Weather History Date:

Sunday, May 19, 2013

  Actual Average (KJCT) Record (KJCT)
Temperature  
Mean Temperature 84 °F -  
Max Temperature 98 °F 86 °F 104 °F (2003)
Min Temperature 71 °F 61 °F 44 °F (2002)
Cooling Degree Days 20    
Growing Degree Days 34 (Base 50)    
Moisture  
Dew Point 65 °F    
Average Humidity 57    
Maximum Humidity 78    
Minimum Humidity 29    
Precipitation  
Precipitation 0.00 in - - ()
Sea Level Pressure  
Sea Level Pressure 29.78 in    
Wind  
Wind Speed 12 mph (SSE)    
Max Wind Speed 21 mph    
Max Gust Speed -    
Visibility 10 miles    
Events      
Averages and records for this station are not official NWS values.
T = Trace of Precipitation, MM = Missing Value Source: NWS Daily Summary

Daily Weather History Graph

Daily Weather History Graph

Search for Another Location

Airport or City:

Trip Planner

Search our weather history database for the weather conditions in past years. The results will help you decide how hot, cold, wet, or windy it might be!

Date:

Astronomy

May. 19, 2013 Rise Set
Actual Time 6:39 AM CDT 8:28 PM CDT
Civil Twilight 6:12 AM CDT 8:55 PM CDT
Nautical Twilight 5:39 AM CDT 9:28 PM CDT
Astronomical Twilight 5:05 AM CDT 10:02 PM CDT
Moon 2:56 PM CDT (5/19) 2:40 AM CDT (5/19)
Length of Visible Light 14h 43m
Length of Day
13h 49m
Waxing Gibbous, 65% of the Moon is Illuminated
May 19
Waxing Gibbous
May 24
Full
May 31
Last Quarter
Jun 8
New
Jun 16
First Quarter

Hourly Weather History & Observations

Time (CDT) Temp. Heat Index Dew Point Humidity Pressure Visibility Wind Dir Wind Speed Gust Speed Precip Events Conditions
12:15 AM 78.8 °F - 64.4 °F 61% 29.82 in 10.0 mi SSE 15.0 mph - N/A   Clear
12:35 AM 78.8 °F - 66.2 °F 65% 29.82 in 10.0 mi SSE 13.8 mph - N/A   Clear
12:55 AM 77.0 °F - 66.2 °F 69% 29.83 in 10.0 mi SSE 11.5 mph - N/A   Clear
1:15 AM 77.0 °F - 64.4 °F 65% 29.83 in 10.0 mi SSE 13.8 mph - N/A   Clear
1:35 AM 77.0 °F - 64.4 °F 65% 29.83 in 10.0 mi SSE 10.4 mph - N/A   Clear
1:55 AM 75.2 °F - 64.4 °F 69% 29.82 in 10.0 mi SSE 12.7 mph - N/A   Clear
2:15 AM 75.2 °F - 64.4 °F 69% 29.81 in 10.0 mi SSE 11.5 mph - N/A   Clear
2:35 AM 75.2 °F - 62.6 °F 65% 29.81 in 10.0 mi SSE 9.2 mph - N/A   Clear
2:55 AM 75.2 °F - 62.6 °F 65% 29.81 in 10.0 mi SSE 10.4 mph - N/A   Clear
3:15 AM 75.2 °F - 62.6 °F 65% 29.81 in 10.0 mi SSE 10.4 mph - N/A   Clear
3:35 AM 73.4 °F - 62.6 °F 69% 29.81 in 10.0 mi SSE 9.2 mph - N/A   Clear
3:55 AM 73.4 °F - 62.6 °F 69% 29.81 in 10.0 mi South 10.4 mph - N/A   Clear
4:15 AM 73.4 °F - 62.6 °F 69% 29.80 in 10.0 mi SSE 10.4 mph - N/A   Clear
4:35 AM 73.4 °F - 62.6 °F 69% 29.80 in 10.0 mi SSE 9.2 mph - N/A   Clear
4:55 AM 73.4 °F - 62.6 °F 69% 29.80 in 10.0 mi South 11.5 mph - N/A   Clear
5:15 AM 73.4 °F - 62.6 °F 69% 29.80 in 10.0 mi South 11.5 mph - N/A   Clear
5:35 AM 71.6 °F - 62.6 °F 73% 29.80 in 10.0 mi SSE 10.4 mph - N/A   Clear
5:55 AM 71.6 °F - 62.6 °F 73% 29.80 in 10.0 mi SSE 8.1 mph - N/A   Clear
6:15 AM 71.6 °F - 62.6 °F 73% 29.81 in 10.0 mi South 6.9 mph - N/A   Clear
6:35 AM 71.6 °F - 62.6 °F 73% 29.82 in 10.0 mi SSE 4.6 mph - N/A   Clear
7:15 AM 71.6 °F - 62.6 °F 73% 29.84 in 10.0 mi SSE 8.1 mph - N/A   Clear
7:35 AM 71.6 °F - 62.6 °F 73% 29.84 in 10.0 mi South 10.4 mph - N/A   Clear
7:55 AM 71.6 °F - 64.4 °F 78% 29.85 in 10.0 mi South 11.5 mph - N/A   Clear
8:15 AM 73.4 °F - 64.4 °F 73% 29.84 in 10.0 mi South 10.4 mph - N/A   Clear
8:35 AM 73.4 °F - 64.4 °F 73% 29.83 in 10.0 mi SSE 10.4 mph - N/A   Clear
8:55 AM 75.2 °F - 64.4 °F 69% 29.83 in 10.0 mi South 11.5 mph - N/A   Clear
9:15 AM 75.2 °F - 66.2 °F 73% 29.83 in 10.0 mi SSE 12.7 mph - N/A   Scattered Clouds
9:55 AM 78.8 °F - 66.2 °F 65% 29.84 in 10.0 mi South 17.3 mph - N/A   Clear
10:15 AM 80.6 °F 82.7 °F 66.2 °F 61% 29.85 in 10.0 mi South 12.7 mph - N/A   Partly Cloudy
10:35 AM 80.6 °F 82.7 °F 66.2 °F 61% 29.84 in 10.0 mi South 13.8 mph - N/A   Partly Cloudy
10:55 AM 82.4 °F 84.6 °F 66.2 °F 58% 29.83 in 10.0 mi South 16.1 mph - N/A   Clear
11:15 AM 84.2 °F 86.6 °F 66.2 °F 55% 29.83 in 10.0 mi South 18.4 mph - N/A   Clear
11:35 AM 86.0 °F 89.4 °F 68.0 °F 55% 29.83 in 10.0 mi South 12.7 mph - N/A   Clear
11:55 AM 86.0 °F 89.4 °F 68.0 °F 55% 29.82 in 10.0 mi South 13.8 mph - N/A   Clear
12:15 PM 87.8 °F 91.4 °F 68.0 °F 52% 29.82 in 10.0 mi South 15.0 mph - N/A   Clear
12:35 PM 89.6 °F 92.2 °F 66.2 °F 46% 29.81 in 10.0 mi South 12.7 mph - N/A   Clear
12:55 PM 89.6 °F 92.2 °F 66.2 °F 46% 29.80 in 10.0 mi South 18.4 mph - N/A   Clear
1:15 PM 91.4 °F 94.0 °F 66.2 °F 43% 29.79 in 10.0 mi South 10.4 mph - N/A   Clear
1:35 PM 93.2 °F 94.9 °F 64.4 °F 38% 29.78 in 10.0 mi SSW 10.4 mph - N/A   Clear
2:15 PM 93.2 °F 94.9 °F 64.4 °F 38% 29.76 in 10.0 mi South 9.2 mph - N/A   Clear
2:35 PM 93.2 °F 94.9 °F 64.4 °F 38% 29.76 in 10.0 mi South 12.7 mph - N/A   Partly Cloudy
2:55 PM 95.0 °F 97.0 °F 64.4 °F 36% 29.75 in 10.0 mi South 13.8 mph - N/A   Partly Cloudy
3:15 PM 96.8 °F 98.0 °F 62.6 °F 32% 29.74 in 10.0 mi South 11.5 mph - N/A   Clear
3:35 PM 98.6 °F 99.4 °F 60.8 °F 29% 29.74 in 10.0 mi South 8.1 mph - N/A   Clear
3:55 PM 96.8 °F 97.1 °F 60.8 °F 30% 29.73 in 10.0 mi South 11.5 mph - N/A   Clear
4:15 PM 96.8 °F 97.1 °F 60.8 °F 30% 29.72 in 10.0 mi Variable 6.9 mph - N/A   Partly Cloudy
4:35 PM 95.0 °F 98.5 °F 66.2 °F 39% 29.72 in 10.0 mi SE 15.0 mph - N/A   Partly Cloudy
4:55 PM 95.0 °F 98.5 °F 66.2 °F 39% 29.71 in 10.0 mi SE 13.8 mph - N/A   Clear
5:15 PM 93.2 °F 96.2 °F 66.2 °F 41% 29.70 in 10.0 mi SSE 12.7 mph - N/A   Clear
5:35 PM 91.4 °F 94.0 °F 66.2 °F 43% 29.70 in 10.0 mi SE 15.0 mph - N/A   Clear
5:55 PM 91.4 °F 94.0 °F 66.2 °F 43% 29.70 in 10.0 mi SE 16.1 mph - N/A   Clear
6:15 PM 91.4 °F 94.0 °F 66.2 °F 43% 29.70 in 10.0 mi SE 17.3 mph - N/A   Clear
6:35 PM 91.4 °F 94.0 °F 66.2 °F 43% 29.70 in 10.0 mi SE 16.1 mph - N/A   Clear
6:55 PM 91.4 °F 94.0 °F 66.2 °F 43% 29.70 in 10.0 mi SE 17.3 mph - N/A   Clear
7:15 PM 89.6 °F 92.2 °F 66.2 °F 46% 29.70 in 10.0 mi SSE 20.7 mph - N/A   Clear
7:35 PM 89.6 °F 92.2 °F 66.2 °F 46% 29.71 in 10.0 mi SSE 18.4 mph - N/A   Clear
7:55 PM 87.8 °F 90.4 °F 66.2 °F 49% 29.72 in 10.0 mi SSE 15.0 mph - N/A   Clear
8:15 PM 87.8 °F 90.4 °F 66.2 °F 49% 29.72 in 10.0 mi SSE 15.0 mph - N/A   Clear
8:35 PM 87.8 °F 90.4 °F 66.2 °F 49% 29.73 in 10.0 mi SE 13.8 mph - N/A   Clear
8:55 PM 86.0 °F 88.2 °F 66.2 °F 51% 29.74 in 10.0 mi SSE 12.7 mph - N/A   Clear
9:15 PM 84.2 °F 86.6 °F 66.2 °F 55% 29.75 in 10.0 mi SSE 12.7 mph - N/A   Clear
9:35 PM 84.2 °F 86.6 °F 66.2 °F 55% 29.76 in 10.0 mi SSE 12.7 mph - N/A   Clear
9:55 PM 84.2 °F 86.6 °F 66.2 °F 55% 29.76 in 10.0 mi SE 11.5 mph - N/A   Clear
10:15 PM 82.4 °F 84.6 °F 66.2 °F 58% 29.77 in 10.0 mi SE 10.4 mph - N/A   Clear
10:35 PM 82.4 °F 85.4 °F 68.0 °F 62% 29.77 in 10.0 mi SE 12.7 mph - N/A   Clear
11:15 PM 80.6 °F 83.2 °F 68.0 °F 65% 29.78 in 10.0 mi SE 10.4 mph - N/A   Clear
11:35 PM 80.6 °F 83.2 °F 68.0 °F 65% 29.79 in 10.0 mi SSE 15.0 mph - N/A   Clear
11:55 PM 80.6 °F 82.7 °F 66.2 °F 61% 29.79 in 10.0 mi SSE 15.0 mph - N/A   Clear